DW4821 Weather Reports


time (UTC)temp
F
wind
direction
speed
knots
gust
knots
rain 1hr
in
rain 24hr
in
rain mn
in
humidity
%
barometer
mb
20260906224530 63 63 4.3 10.4 0.00 0.05 0.00 76 1010.2
20260906223028 62 14 3.5 8.7 0.00 0.05 0.00 77 1010.2
20260906221526 62 9 4.3 8.7 0.00 0.05 0.00 77 1010.4
20260906220025 62 26 6.1 9.6 0.00 0.05 0.00 77 1010.4
20260906214536 62 15 6.1 11.3 0.00 0.05 0.00 77 1010.3
20260906213027 62 19 7.0 14.8 0.00 0.05 0.00 77 1010.3
20260906211523 62 64 7.8 12.2 0.00 0.05 0.00 75 1010.2
20260906210039 62 21 5.2 11.3 0.00 0.05 0.00 76 1010.3
20260906204522 62 36 7.0 10.4 0.00 0.05 0.00 77 1010.3
20260906203022 61 357 6.1 14.8 0.00 0.05 0.00 78 1010.3
20260906201521 61 29 7.8 13.9 0.00 0.05 0.00 77 1010.4
20260906200021 61 2 7.0 16.5 0.00 0.05 0.00 76 1010.5
20260906194521 62 5 8.7 14.8 0.00 0.05 0.00 74 1010.4
20260906193021 62 2 7.8 15.6 0.00 0.05 0.00 73 1010.3
20260906191519 62 8 10.4 18.2 0.00 0.05 0.00 73 1010.1
20260906190024 61 35 9.6 18.2 0.00 0.05 0.00 73 1010.1
20260906184515 60 35 11.3 19.1 0.00 0.05 0.00 72 1010.2
20260906183014 60 46 11.3 21.7 0.00 0.05 0.00 72 1010.6
20260906181523 59 354 9.6 15.6 0.00 0.05 0.00 73 1010.8
20260906180006 57 4 8.7 18.2 0.00 0.05 0.00 80 1010.9
20260906174506 57 356 3.5 10.4 0.00 0.05 0.00 80 1012.1
20260906173004 57 11 10.4 16.5 0.00 0.05 0.00 79 1012.3
20260906171503 57 20 7.8 15.6 0.00 0.05 0.00 81 1012.0
20260906170003 56 5 7.0 13.0 0.00 0.05 0.00 81 1012.2
20260906164503 56 349 7.0 14.8 0.00 0.05 0.00 82 1012.2
20260906163001 57 360 8.7 16.5 0.00 0.05 0.00 82 1012.0
20260906161600 56 46 7.0 15.6 0.00 0.05 0.00 84 1011.9
20260906160058 57 9 5.2 11.3 0.00 0.05 0.00 84 1012.4
20260906154559 58 86 3.5 8.7 0.00 0.05 0.00 86 1012.5
20260906153100 57 79 3.5 7.8 0.00 0.05 0.00 87 1012.6
20260906151602 55 343 5.2 13.9 0.00 0.05 0.00 88 1012.7
20260906150056 56 302 10.4 20.0 0.00 0.05 0.00 85 1013.2
20260906144559 57 44 5.2 10.4 0.00 0.06 0.00 89 1012.7
20260906143108 57 17 8.7 13.0 0.00 0.06 0.00 89 1012.5
20260906141555 57 61 4.3 8.7 0.00 0.06 0.00 89 1012.8
20260906140052 57 54 6.1 12.2 0.00 0.06 0.00 89 1012.5
20260906134553 57 38 8.7 15.6 0.00 0.08 0.00 90 1012.3
20260906133055 56 53 7.8 11.3 0.00 0.08 0.00 92 1012.3
20260906131555 55 30 6.1 10.4 0.00 0.08 0.00 92 1012.5
20260906130048 55 35 7.0 13.0 0.00 0.08 0.00 92 1012.7
20260906124548 55 20 7.0 14.8 0.00 0.08 0.00 92 1012.7
20260906123044 55 41 7.8 12.2 0.00 0.08 0.00 92 1012.5
20260906121545 55 23 7.0 13.0 0.00 0.08 0.00 91 1012.8
20260906120043 55 34 6.1 12.2 0.00 0.08 0.00 91 1013.2
20260906114542 55 42 7.0 10.4 0.00 0.08 0.00 91 1013.3
20260906113046 54 13 7.0 13.0 0.00 0.08 0.00 92 1013.0
20260906111541 54 22 6.1 12.2 0.00 0.08 0.00 91 1013.0
20260906110040 55 42 7.8 15.6 0.00 0.08 0.00 90 1012.9
20260906104539 55 38 6.1 14.8 0.00 0.08 0.00 90 1013.0
20260906103038 54 32 7.8 15.6 0.00 0.08 0.00 90 1013.1
20260906101540 54 19 7.8 13.0 0.00 0.08 0.00 91 1013.3
20260906100037 54 25 8.7 16.5 0.00 0.08 0.00 92 1013.1
20260906094537 54 36 9.6 15.6 0.00 0.08 0.00 92 1012.9
20260906093033 54 360 9.6 15.6 0.00 0.08 0.00 92 1013.2
20260906091531 54 12 9.6 18.2 0.00 0.08 0.00 92 1013.6
20260906090029 54 28 7.8 15.6 0.00 0.08 0.00 92 1013.7
20260906084528 54 27 9.6 19.1 0.00 0.08 0.00 92 1013.7
20260906083027 54 34 7.0 16.5 0.00 0.08 0.00 91 1013.8
20260906081533 54 10 10.4 17.4 0.00 0.08 0.00 90 1013.6
20260906080020 55 17 8.7 15.6 0.00 0.08 0.00 88 1013.6
20260906074517 55 19 9.6 17.4 0.00 0.08 0.00 88 1013.4
20260906073013 55 350 8.7 14.8 0.00 0.08 0.00 87 1013.7
20260906071510 56 5 10.4 18.2 0.00 0.08 0.00 87 1013.9
20260906070009 56 43 8.7 13.9 0.00 0.08 0.00 87 1014.2
20260906064505 56 32 8.7 15.6 0.00 0.08 0.00 87 1014.5
20260906063003 56 29 8.7 15.6 0.00 0.08 0.00 87 1014.5
20260906061502 56 19 7.8 13.0 0.00 0.08 0.00 88 1014.8
20260906060059 55 12 7.8 14.8 0.01 0.08 0.00 88 1014.5
20260906054559 55 31 7.8 15.6 0.01 0.08 0.08 88 1014.4
20260906053059 55 16 7.8 18.2 0.01 0.08 0.08 88 1014.4
20260906051558 55 32 7.8 19.1 0.02 0.08 0.08 87 1014.3
20260906050116 55 19 7.8 11.3 0.01 0.07 0.07 86 1015.5
20260906044556 55 2 9.6 18.2 0.01 0.07 0.07 86 1014.2
20260906043108 55 18 11.3 17.4 0.04 0.07 0.07 87 1013.8
20260906041556 55 32 7.8 14.8 0.03 0.06 0.06 87 1013.7
20260906040058 55 31 8.7 17.4 0.03 0.06 0.06 85 1013.8
20260906034555 57 25 9.6 16.5 0.03 0.06 0.06 80 1014.2
20260906033053 58 10 8.7 13.9 0.00 0.03 0.03 74 1015.1
20260906031552 58 17 9.6 16.5 0.00 0.03 0.03 74 1013.5
20260906030100 58 31 12.2 20.0 0.00 0.03 0.03 74 1013.1
20260906024550 58 29 9.6 16.5 0.00 0.03 0.03 72 1012.6
20260906023052 58 48 10.4 18.2 0.00 0.03 0.03 71 1012.6
20260906021606 59 4 9.6 16.5 0.00 0.03 0.03 70 1012.5
20260906020048 59 37 10.4 18.2 0.00 0.03 0.03 69 1012.7
20260906014548 60 2 7.8 15.6 0.00 0.03 0.03 67 1012.7
20260906013048 61 14 7.8 20.0 0.00 0.03 0.03 65 1012.4
20260906011547 61 5 8.7 14.8 0.00 0.03 0.03 65 1012.3
20260906010047 62 360 7.8 17.4 0.00 0.03 0.03 63 1012.3
20260906004547 64 17 9.6 16.5 0.00 0.03 0.03 61 1012.4
20260906003055 65 28 8.7 15.6 0.00 0.03 0.03 58 1012.6
20260906001547 65 13 8.7 16.5 0.00 0.03 0.03 59 1012.4
20260906000046 65 323 7.8 16.5 0.00 0.03 0.03 59 1012.9
20260905234553 66 40 7.8 13.9 0.00 0.03 0.03 57 1012.8
20260905233045 67 346 5.2 13.9 0.00 0.03 0.03 57 1012.8
20260905231544 67 52 7.0 14.8 0.00 0.03 0.03 55 1012.6
20260905230045 68 7 7.0 14.8 0.00 0.03 0.03 53 1012.4